Flag for Switzerland Weather past 2 weeks in Worb, Bern, Switzerland

Now
55 °F

Passing clouds.


Feels Like: 55 °F
Forecast: 52 / 75 °F
Wind: 1 mph from North

Location: Bern / Belp

Current Time: Aug 28, 2014 at 7:54:31 AM

Latest Report: Aug 28, 2014 at 7:20 AM


Visibility: N/A

Pressure: 30.07 "Hg

Humidity: 100%

Dew point: 55 °F

Location of WorbLocation

Historic Weather in Worb — Graph

°F

Worb temperature yesterday

Maximum temperature yesterday: 72 °F (at 4:20 PM)
Minimum temperature yesterday: 57 °F (at 12:20 AM)
Average temperature yesterday: 63 °F

Past Weeks' High & Low Weather Summary

 TemperatureHumidityPressure
High75 °F (Aug 18, 4:50 PM)100% (Aug 13, 7:50 AM)30.21 "Hg (Aug 13, 7:50 AM)
Low45 °F (Aug 17, 5:20 AM)31% (Aug 18, 5:50 PM)29.68 "Hg (Aug 13, 8:50 AM)
Average58 °F79%30.01 "Hg
* Reported Aug 13 6:20 AM — Aug 28 6:50 AM, Worb, Weather by CustomWeather, © 2014

Note: Actual official high and low records may vary slightly from our data, if they occured in-between our weather recording intervals... More about our weather records

Advertising

Worb weather history for previous 24 hours

 ConditionsComfort  
Time TempWeatherWind HumidityBarometerVisibility
6:50 AM
Aug 28
55 °FPassing clouds.1 mph100%30.07 "HgN/A
6:20 AM57 °FPassing clouds.2 mph94%30.07 "HgN/A
5:50 AM57 °FPassing clouds.2 mph100%30.07 "HgN/A
5:20 AM57 °FPartly cloudy.1 mph100%30.07 "HgN/A
4:50 AM57 °FMostly cloudy.No wind94%30.07 "HgN/A
4:20 AM57 °FOvercast.1 mph94%30.07 "HgN/A
3:50 AM57 °FMostly cloudy.1 mph100%30.07 "HgN/A
3:20 AM57 °FPartly cloudy.No wind100%30.07 "HgN/A
2:50 AM57 °FMostly cloudy.No wind100%30.07 "HgN/A
2:20 AM57 °FPassing clouds.1 mph100%30.07 "HgN/A
1:50 AM57 °FOvercast.3 mph100%30.07 "HgN/A
1:20 AM59 °FMostly cloudy.1 mph94%30.07 "HgN/A
12:50 AM57 °FPartly cloudy.1 mph100%30.07 "HgN/A
12:20 AM57 °FPartly cloudy.1 mph100%30.07 "HgN/A
11:50 PM
Aug 27
57 °FPassing clouds.1 mph94%30.07 "HgN/A
11:20 PM59 °FMostly cloudy.1 mph94%30.07 "HgN/A
10:50 PM59 °FPartly cloudy.1 mph94%30.07 "HgN/A
10:20 PM59 °FPassing clouds.2 mph94%30.07 "HgN/A
9:50 PM61 °FPartly cloudy.1 mph88%30.04 "HgN/A
9:20 PM64 °FPassing clouds.1 mph73%30.04 "HgN/A
8:50 PM64 °FPartly sunny.1 mph78%30.04 "HgN/A
7:50 PM66 °FBroken clouds.3 mph68%30.04 "HgN/A
7:20 PM66 °FBroken clouds.1 mph68%30.04 "HgN/A
6:20 PM70 °FBroken clouds.3 mph57%30.04 "HgN/A
5:50 PM72 °FPartly sunny.2 mph50%30.01 "HgN/A
4:50 PM72 °FPartly sunny.5 mph53%30.01 "HgN/A
4:20 PM72 °FBroken clouds.7 mph50%30.01 "HgN/A
3:50 PM70 °FPartly sunny.8 mph53%30.04 "HgN/A
3:20 PM70 °FPartly sunny.8 mph60%30.01 "HgN/A
2:50 PM70 °FPartly sunny.8 mph53%30.01 "HgN/A
2:20 PM70 °FPartly sunny.7 mph57%30.01 "HgN/A
1:50 PM70 °FPartly sunny.9 mph57%30.01 "HgN/A
1:20 PM70 °FPartly sunny.7 mph57%30.01 "HgN/A
12:20 PM68 °FScattered clouds.6 mph60%30.01 "HgN/A
11:50 AM68 °FScattered clouds.7 mph60%30.01 "HgN/A
11:20 AM68 °FPartly sunny.9 mph64%30.01 "HgN/A
10:50 AM66 °FPartly sunny.9 mph64%30.01 "HgN/A
10:20 AM66 °FScattered clouds.8 mph64%30.01 "HgN/A
9:50 AM64 °FScattered clouds.6 mph73%30.01 "HgN/A
9:20 AM64 °FScattered clouds.5 mph73%30.01 "HgN/A
8:50 AM63 °FScattered clouds.2 mph88%29.98 "HgN/A
8:20 AM59 °FBroken clouds.2 mph100%29.98 "HgN/A
7:50 AM57 °FBroken clouds.1 mph100%29.98 "HgN/A
7:20 AM57 °FPartly cloudy.2 mph100%29.98 "HgN/A
Weather by CustomWeather, © 2014

See weather overviewHow to use our weather pages